Location: Kumla
(59.1265°N, 15.1401°E)
Time: 17:37:28
(UTC+01:00)

Altair - Pass Details

Date: 08 December 2023
Orbit: 1501 x 1682 km, 47.2° (Epoch: 25 February)

Event Time Altitude Azimuth Distance (km) Brightness Sun altitude
Rises 13:02:14 0° 275° (W) 4,739 10.2 6.9°
Reaches altitude 10° 13:05:59 10° 264° (W) 3,727 9.9 6.7°
Maximum altitude 13:13:07 25° 213° (SSW) 2,667 10.3 6.4°
Drops below altitude 10° 13:20:08 10° 163° (SSE) 3,652 10.5 6.1°
Sets 13:23:46 0° 151° (SSE) 4,626 10.6 6.0°
